TimePDT,TemperatureF,Dew PointF,Humidity,Sea Level PressureIn,VisibilityMPH,Wind Direction,Wind SpeedMPH,Gust SpeedMPH,PrecipitationIn,Events,Conditions,WindDirDegrees,DateUTC
12:53 AM,69.1,64.9,87,29.87,8.0,Calm,Calm,-,N/A,,Clear,0,2012-10-03 07:53:00
1:53 AM,68.0,64.0,87,29.88,8.0,East,3.5,-,N/A,,Clear,100,2012-10-03 08:53:00
2:23 AM,68.0,64.4,88,29.88,2.0,ESE,4.6,-,N/A,,Partly Cloudy,120,2012-10-03 09:23:00
2:25 AM,68.0,64.4,88,29.88,1.2,ESE,4.6,-,N/A,,Scattered Clouds,110,2012-10-03 09:25:00
2:27 AM,68.0,64.4,88,29.88,0.8,ESE,3.5,-,N/A,,Mist,120,2012-10-03 09:27:00
2:37 AM,68.0,66.2,94,29.88,0.2,East,4.6,-,N/A,Fog,Fog,100,2012-10-03 09:37:00
2:47 AM,68.0,66.2,94,29.88,0.5,ESE,4.6,-,N/A,Fog,Fog,120,2012-10-03 09:47:00
2:48 AM,68.0,66.2,94,29.88,0.5,ESE,4.6,-,N/A,Fog,Fog,120,2012-10-03 09:48:00
3:16 AM,68.0,66.2,94,29.89,1.5,SSE,3.5,-,N/A,,Overcast,160,2012-10-03 10:16:00
3:27 AM,69.8,66.2,88,29.89,2.0,Calm,Calm,-,N/A,,Overcast,0,2012-10-03 10:27:00
3:44 AM,69.8,66.2,88,29.88,4.0,SE,3.5,-,N/A,,Overcast,130,2012-10-03 10:44:00
3:53 AM,69.1,66.9,93,29.88,6.0,SE,3.5,-,N/A,,Overcast,140,2012-10-03 10:53:00
4:53 AM,69.1,66.0,90,29.89,7.0,Calm,Calm,-,N/A,,Overcast,0,2012-10-03 11:53:00
5:53 AM,69.1,64.9,87,29.90,6.0,Calm,Calm,-,N/A,,Overcast,0,2012-10-03 12:53:00
6:53 AM,69.1,64.9,87,29.92,6.0,Calm,Calm,-,N/A,,Overcast,0,2012-10-03 13:53:00
7:53 AM,69.1,64.9,87,29.95,4.0,Calm,Calm,-,N/A,,Overcast,0,2012-10-03 14:53:00
8:46 AM,69.8,64.4,83,29.96,3.0,ESE,4.6,-,N/A,,Overcast,110,2012-10-03 15:46:00
8:53 AM,69.1,64.9,87,29.96,3.0,East,4.6,-,N/A,,Overcast,100,2012-10-03 15:53:00
9:21 AM,69.8,64.4,83,29.97,3.0,SE,4.6,-,N/A,,Haze,130,2012-10-03 16:21:00
9:29 AM,69.8,64.4,83,29.97,3.0,Calm,Calm,-,N/A,,Haze,0,2012-10-03 16:29:00
9:53 AM,71.1,64.9,81,29.98,4.0,SE,3.5,-,N/A,,Haze,140,2012-10-03 16:53:00
10:21 AM,71.6,64.4,78,29.98,5.0,Variable,3.5,-,N/A,,Haze,0,2012-10-03 17:21:00
10:53 AM,73.0,64.0,73,29.98,6.0,South,6.9,-,N/A,,Haze,190,2012-10-03 17:53:00
11:53 AM,73.9,63.0,68,29.97,9.0,SW,5.8,-,N/A,,Clear,220,2012-10-03 18:53:00
12:53 PM,75.9,63.0,64,29.96,9.0,South,5.8,-,N/A,,Scattered Clouds,190,2012-10-03 19:53:00
1:53 PM,79.0,61.0,54,29.94,10.0,Variable,6.9,-,N/A,,Clear,0,2012-10-03 20:53:00
2:53 PM,81.0,59.0,47,29.94,10.0,SSW,6.9,-,N/A,,Scattered Clouds,200,2012-10-03 21:53:00
3:53 PM,82.9,62.1,49,29.94,10.0,WNW,5.8,-,N/A,,Mostly Cloudy,290,2012-10-03 22:53:00
4:53 PM,81.0,62.1,52,29.94,10.0,NW,9.2,-,N/A,,Clear,320,2012-10-03 23:53:00
5:53 PM,75.9,61.0,60,29.94,10.0,NW,9.2,-,N/A,,Clear,310,2012-10-04 00:53:00
6:53 PM,72.0,60.1,66,29.96,10.0,NW,9.2,-,N/A,,Clear,310,2012-10-04 01:53:00
7:53 PM,69.1,62.1,78,29.98,10.0,WNW,6.9,-,N/A,,Clear,300,2012-10-04 02:53:00
8:53 PM,69.1,62.1,78,29.99,10.0,NW,5.8,-,N/A,,Clear,320,2012-10-04 03:53:00
9:53 PM,68.0,61.0,78,30.01,10.0,NW,8.1,-,N/A,,Clear,310,2012-10-04 04:53:00
10:53 PM,66.9,60.1,79,30.02,10.0,NW,5.8,-,N/A,,Clear,310,2012-10-04 05:53:00
11:53 PM,66.0,59.0,78,30.03,10.0,NNW,4.6,-,N/A,,Clear,340,2012-10-04 06:53:00